Regional Weather Roundup
Issued by NWS

Home | Current Version | Previous Version | Graphics & Text | Print | Product List | Glossary Off
Versions: 1 2 3 4 5 6 7 8 9 10 11 12 13 14 15 16 17 18 19 20 21 22 23 24 25 26 27 28 29 30 31 32 33 34 35 36 37 38 39 40 41 42 43 44 45 46 47 48 49 50

000
ASUS43 KDMX 270803
RWRIA

WEATHER ROUNDUP FOR IOWA
NATIONAL WEATHER SERVICE DES MOINES IA
300 AM CDT SAT AUG 27 2016

NOTE: "FAIR" INDICATES FEW OR NO CLOUDS BELOW 12,000 FEET WITH NO
SIGNIFICANT WEATHER AND/OR OBSTRUCTIONS TO VISIBILITY.

* - THESE STATIONS ARE NOT NWS STATIONS...THUS NOT UNDER NWS
QUALITY CONTROL.  THEY ALSO DO NOT REPORT WEATHER SUCH
AS PRECIPITATION OR FOG.

IAZ001>003-012>014-020>022-031>034-043>046-270900-
   NORTHWEST IOWA

CITY           SKY/WX    TMP DP  RH WIND       PRES   REMARKS
CARROLL *      CLOUDY    63  63 100 E6        30.03S
CHEROKEE *     CLOUDY    62  60  95 E6        30.02F
DENISON *      CLOUDY   N/A N/A N/A SE7       30.02S
LE MARS *      CLOUDY    63  59  88 VRB5      30.03S
ORANGE CITY *  CLOUDY    63  59  88 E5        30.03F
SHELDON *      CLOUDY    63  61  94 E6        30.02F
SIOUX CITY     CLOUDY    65  61  87 SE6       30.00F
SPENCER        CLOUDY    62  57  83 E7        30.04F
STORM LAKE *   CLOUDY    61  59  94 SE8       30.04F
$$

IAZ055>058-069>071-079>083-090>094-270900-
   SOUTHWEST IOWA

CITY           SKY/WX    TMP DP  RH WIND       PRES   REMARKS
ATLANTIC *     CLOUDY    64  64 100 E6        30.02S FOG
AUDUBON *      CLOUDY    63  61  94 CALM      30.04S FOG
CLARINDA *       N/A     68  68 100 MISG      30.03F FOG
COUNCIL BLFS * CLOUDY    64  64 100 E6        30.01F
CRESTON *      CLOUDY    66  66 100 NE3       30.03S FOG
HARLAN  *      CLOUDY    64  64 100 CALM      30.06S FOG
LAMONI         PTCLDY    66  66 100 W6        30.00S
RED OAK *      CLOUDY    66  66 100 E3        30.01F FOG
SHENANDOAH *   CLOUDY    66 -40   1 CALM      30.01S
$$

IAZ047>049-059>061-072>074-084-270900-
   CENTRAL IOWA

CITY           SKY/WX    TMP DP  RH WIND       PRES   REMARKS
AMES           CLOUDY    61  61 100 NE5       30.02F
ANKENY *         N/A    N/A N/A N/A MISG        N/A
BOONE *        CLOUDY    61  59  94 E8        30.01F
CHARITON *       N/A     68  66  94 MISG      29.99S FOG
DES MOINES     CLOUDY    65  62  90 NE5       30.00S
GRINNELL*      CLOUDY    61  60  95 E9        30.02F
KNOXVILLE *    CLOUDY    66  64  94 E12       29.97F
MARSHALLTOWN   CLOUDY    61  60  97 E12       30.01F
NEWTON *       MOCLDY    63  63 100 NE12G18   30.00F
PELLA *        CLOUDY    64  63  96 NE6       30.01F
PERRY *        CLOUDY    63  62  99 CALM      30.03F
$$

IAZ004>006-015-016-023>025-035-036-270900-
   NORTH CENTRAL IOWA

CITY           SKY/WX    TMP DP  RH WIND       PRES   REMARKS
ALGONA *       CLOUDY    63  57  82 VRB3G12   30.05S
ESTHERVILLE    CLOUDY    61  60  97 E5        30.05F
FORT DODGE *   CLOUDY    61  57  88 NE6       30.05S
MASON CITY     CLOUDY    61  58  90 E8        30.06F
FOREST CITY *    N/A    N/A N/A N/A MISG        N/A
WEBSTER CITY * CLOUDY    61  61 100 E8        30.02S
IOWA FALLS *   CLOUDY    61  59  93 NE6       30.05F
$$

IAZ007>011-017>019-026>030-037>042-050>054-066-270900-
   NORTHEAST IOWA

CITY           SKY/WX    TMP DP  RH WIND       PRES   REMARKS
CEDAR RAPIDS   LGT RAIN  64  64 100 N8        30.03F FOG
CHARLES CITY * CLOUDY    61  61 100 NE8       30.07F
CLINTON *      CLOUDY    69  68  96 E9        30.04F
DECORAH *      CLOUDY    61  61 100 E5        30.09S
DUBUQUE        LGT RAIN  63  62  97 N12       30.07F
MONTICELLO *   CLOUDY    64  63  94 VRB6      30.04F
OELWEIN *      CLOUDY    59  59 100 E14       30.05F
WATERLOO       CLOUDY    61  58  90 E9        30.03F
$$

IAZ064-065-067-068-078-270900-
   EAST CENTRAL IOWA

CITY           SKY/WX    TMP DP  RH WIND       PRES   REMARKS
DAVENPORT      CLOUDY    69  68  96 SE12      30.03F FOG
IOWA CITY      RAIN      67  65  93 NE3       30.03F FOG
MT. PLEASANT * CLOUDY    72  72 100 SE6       30.00F
MUSCATINE *    DRIZZLE   72  68  88 SE6       30.02S
QUAD CITIES    CLOUDY    69  67  93 E7        30.02F
$$

IAZ062-063-075>077-085>089-095>099-270900-
   SOUTHEAST IOWA

CITY           SKY/WX    TMP DP  RH WIND       PRES   REMARKS
BURLINGTON     LGT RAIN  70  70 100 SE9       30.03S FOG
FAIRFIELD *    CLOUDY    70  68  94 SW5       30.00F
FORT MADISON * CLOUDY    70  70 100 SE8       30.03F
KEOKUK *       CLOUDY    70  68  94 SE9       30.01F
OSKALOOSA *    MOCLDY    65  65  97 E7        30.00F
CENTERVILLE *    N/A     66  64  94 CALM      30.02S
OTTUMWA        CLOUDY    67  65  93 E9        29.99F
WASHINGTON *   CLOUDY    68  68 100 VRB3      30.01F
$$

ABBREVIATIONS USED IN REMARKS
   TC - TEMPERATURES IN CELSIUS
  WCI - WIND CHILL INDEX
   HX - HEAT INDEX
  VSB - VISIBILITY
$$





USA.gov is the U.S. government's official web portal to all federal, state and local government web resources and services.